Location: Seattle
(47.6064°N, 122.3308°W)
Time: 04:51:56
(UTC-08:00)

S-56A Canister/Altair - Pass Details

Date: 01 December 2020
Orbit: 633 x 2499 km, 38.9° (Epoch: 23 January)

Event Time Altitude Azimuth Distance (km) Brightness Sun altitude
Rises 15:53:26 0° 187° (S) 6,114 12.9 2.8°
Reaches altitude 10° 16:00:12 10° 167° (SSE) 4,918 12.0 1.9°
Maximum altitude 16:06:32 15° 139° (SE) 4,239 11.3 1.0°
Drops below altitude 10° 16:12:10 10° 111° (ESE) 4,286 11.0 0.2°
Sets 16:17:13 0° 89° (E) 4,905 11.1 -0.5°
